Home   Weather   Des Moines   Past weeks

Flag for USA Past Weather in Des Moines, Iowa, USA — Yesterday and Last 2 Weeks

Now
63 °F

Passing clouds.


Feels Like: 63 °F
Forecast: 49 / 65 °F
Wind: 7 mph from North

Location: Des Moines International Airport

Current Time: Sep 28, 2016 at 12:20:12 AM

Latest Report: Sep 27, 2016 at 11:54 PM


Visibility: 10 mi

Pressure: 29.82 "Hg

Humidity: 48%

Dew Point: 43 °F

Location of Des MoinesLocation

Past Weather in Des Moines — Graph

°F

Des Moines Temperature Yesterday

Maximum temperature yesterday: 76 °F (at 2:54 PM)
Minimum temperature yesterday: 50 °F (at 6:54 AM)
Average temperature yesterday: 63 °F

High & Low Weather Summary for the Past Weeks

 TemperatureHumidityPressure
High92 °F (Sep 21, 1:54 PM)97% (Sep 16, 2:54 AM)30.27 "Hg (Sep 16, 2:54 AM)
Low50 °F (Sep 26, 6:54 AM)26% (Sep 26, 3:54 PM)29.80 "Hg (Sep 27, 5:54 PM)
Average71 °F72%29.99 "Hg
* Reported Sep 12 10:54 PM — Sep 27 10:54 PM, Des Moines, Weather by CustomWeather, © 2016

Note: Actual official high and low records may vary slightly from our data, if they occured in-between our weather recording intervals... More about our weather records

Advertising

Des Moines Weather History for the Previous 24 Hours

Scroll right to see more
 ConditionsComfort  
Time TempWeatherWind HumidityBarometerVisibility
10:54 PM
Tue, Sep 27
62 °FPassing clouds.3 mph60%29.81 "Hg10 mi
9:54 PM63 °FPassing clouds.5 mph58%29.81 "Hg10 mi
8:54 PM64 °FPassing clouds.5 mph52%29.81 "Hg10 mi
7:54 PM65 °FPassing clouds.5 mph51%29.80 "Hg10 mi
6:54 PM69 °FPassing clouds.7 mph42%29.80 "Hg10 mi
5:54 PM75 °FPassing clouds.14 mph31%29.80 "Hg10 mi
4:54 PM75 °FPassing clouds.20 mph31%29.81 "Hg10 mi
3:54 PM76 °FPassing clouds.20 mph29%29.82 "Hg10 mi
2:54 PM76 °FPassing clouds.22 mph29%29.83 "Hg10 mi
1:54 PM75 °FPassing clouds.13 mph28%29.86 "Hg10 mi
12:54 PM73 °FPassing clouds.16 mph30%29.90 "Hg10 mi
11:54 AM71 °FPassing clouds.18 mph32%29.93 "Hg10 mi
10:54 AM67 °FPassing clouds.10 mph42%29.96 "Hg10 mi
9:54 AM62 °FPassing clouds.7 mph56%29.97 "Hg10 mi
8:54 AM56 °FPassing clouds.5 mph70%29.98 "Hg10 mi
7:54 AM52 °FPassing clouds.5 mph75%29.99 "Hg10 mi
6:54 AM50 °FPassing clouds.5 mph77%29.98 "Hg10 mi
5:54 AM51 °FClear.6 mph77%29.97 "Hg10 mi
4:54 AM51 °FClear.5 mph77%29.98 "Hg10 mi
3:54 AM52 °FClear.3 mph75%29.98 "Hg10 mi
2:54 AM53 °FClear.5 mph72%29.98 "Hg10 mi
1:54 AM53 °FClear.7 mph74%29.99 "Hg10 mi
12:54 AM56 °FClear.6 mph67%29.99 "Hg10 mi
Weather by CustomWeather, © 2016

See weather overviewHow to use our weather pages